Regional Weather Roundup
Issued by NWS

Home | Current Version | Previous Version | Graphics & Text | Print | Product List | Glossary On
Versions: 1 2 3 4 5 6 7 8 9 10 11 12 13 14 15 16 17 18 19 20 21 22 23 24 25 26 27 28 29 30 31 32 33 34 35 36 37 38 39 40 41 42 43 44 45 46 47 48 49 50
786
ASUS45 KCYS 201110
RWRWY

WYOMING REGIONAL WEATHER ROUNDUP
NATIONAL WEATHER SERVICE CHEYENNE WY
500 AM MDT SUN AUG 20 2017

NOTE:  "FAIR" INDICATES FEW OR NO CLOUDS BELOW 12,000 FEET
WITH NO SIGNIFICANT WEATHER AND/OR OBSTRUCTIONS TO VISIBILITY.

WYZ001-201200-
YELLOWSTONE NATIONAL PARK

CITY           SKY/WX    TMP DP  RH WIND       PRES   REMARKS
LK YELLOWSTONE   N/A     36  32  85 CALM      30.24S
W YELLOWSTONE  NOT AVBL

$$
WYZ002>013-054>058-071-098>099-201200-
NORTHERN WYOMING

CITY           SKY/WX    TMP DP  RH WIND       PRES   REMARKS
JACKSON        FAIR      41  31  67 N8        30.16S
CODY           FAIR      58  37  45 NW3       30.09S
GREYBULL       FAIR      60  37  42 W9        29.99F
WORLAND        FAIR      52  35  52 E3        30.01R
SHERIDAN       FAIR      50  41  71 S5        30.06R
BUFFALO        FAIR      57  35  43 NW5       30.11R
GILLETTE       FAIR      51  41  68 CALM      30.05R
HULETT         FAIR      59  45  58 N9        30.07R
NEWCASTLE      FAIR      61  34  36 S6        30.04S

$$
WYZ014>020-022>026-101>103-201200-
CENTRAL WYOMING

CITY           SKY/WX    TMP DP  RH WIND       PRES   REMARKS
BIG PINEY      FAIR      41  28  60 E6        30.22F
PINEDALE       FAIR      36  32  87 NW6       30.23F WCI  31
DUBOIS         FAIR      46  27  46 NW6       30.19R
LANDER           N/A    N/A N/A N/A MISG      30.09S
RIVERTON       FAIR      57  25  29 NW7       30.07S
CASPER         FAIR      49  36  61 W7        30.11R
DOUGLAS        FAIR      52  39  61 N5        30.09R

$$
WYZ021-027>030-104>119-201200-
SOUTHERN WYOMING

CITY           SKY/WX    TMP DP  RH WIND       PRES   REMARKS
EVANSTON       FAIR      58  36  43 SE6       30.22S
FORT BRIDGER   FAIR      60  33  36 W10       30.24S
ROCK SPRINGS   FAIR      58  34  40 S7        30.19S
RAWLINS        FAIR      51  30  44 W5        30.20S
SARATOGA       FAIR      50  32  50 S10       30.23S
LARAMIE        FAIR      48  31  51 SE7       30.22S
CHEYENNE       FAIR      59  32  36 W10       30.12R
TORRINGTON     FAIR      54  45  71 CALM      29.99R
PINE BLUFFS    FAIR      52  41  66 W3        30.05S

$$




USA.gov is the U.S. government's official web portal to all federal, state and local government web resources and services.